Location: Miss�
(46.9484°N, 0.1922°W)
Time: 04:32:28
(UTC+00:00)

BREEZE-M DEB (TANK) - Visible Passes

Search period start: 15 June 2021 00:00
Search period end: 25 June 2021 00:00
Orbit: 315 x 15388 km, 49.5° (Epoch: 14 June)

Date Brightness Start Highest point End Pass type
(mag) Time Alt. Az. Time Alt. Az. Time Alt. Az.
15 Jun 7.3 01:02:16 16° S 01:45:37 38° SE 01:59:17 10° ENE visible
16 Jun 7.6 00:30:42 16° S 01:10:31 33° SE 01:25:29 10° ENE visible
16 Jun 7.7 23:58:59 16° SSE 00:35:19 29° SE 00:51:23 10° E visible
17 Jun 7.7 23:27:06 15° SSE 00:00:05 25° SE 00:16:52 10° E visible
18 Jun 7.8 22:55:03 13° SSE 23:24:52 20° ESE 23:41:39 10° E visible
19 Jun 5.6 03:48:21 10° SW 04:30:31 79° SSE 04:37:46 10° ENE visible
19 Jun 8.0 22:22:50 11° SE 22:49:44 16° ESE 23:05:10 10° E visible
20 Jun 5.9 03:07:26 10° SW 03:56:21 73° SSE 04:04:31 10° ENE visible
20 Jun 8.1 22:00:05 10° SE 22:14:48 12° ESE 22:25:05 10° ESE visible
21 Jun 6.1 02:31:55 12° SW 03:22:01 67° SSE 03:31:13 10° ENE visible
22 Jun 6.4 01:59:16 16° SSW 02:47:29 61° SSE 02:57:50 10° ENE visible
23 Jun 6.7 01:26:23 18° SSW 02:12:43 56° SE 02:24:22 10° ENE visible
24 Jun 6.9 00:53:13 20° SSW 01:37:45 50° SE 01:50:47 10° ENE visible
